QPF
0.00 0.01 0.01 0.01 0.01 0.00 0.00 0.01 0.01 0.01 0.00 0.00 0.01 0.01 0.01 0.01 0.01 0.01 0.00 0.00 0.00 0.00 0.00 0.00 0.01 0.04 0.05 0.03 0.01 0.00 0.00 0.00 0.00 0.00 0.00 0.01 0.01 0.01 0.02 0.01 0.02 0.02 0.02 0.02
0.01 0.01 0.00 0.00 0.00 0.00 0.01 0.01 0.01 0.01 0.00 0.00 0.01 0.01 0.00 0.00 0.01 0.01 0.00 0.00 0.00 0.00 0.00 0.00 0.02 0.05 0.04 0.04 0.01 0.00 0.00 0.00 0.00 0.00 0.00 0.01 0.01 0.01 0.02 0.01 0.02 0.03 0.03 0.03
0.01 0.00 0.00 0.00 0.00 0.01 0.01 0.01 0.01 0.02 0.01 0.01 0.01 0.01 0.00 0.00 0.00 0.00 0.00 0.00 0.00 0.00 0.00 0.00 0.01 0.03 0.03 0.01 0.00 0.00 0.00 0.00 0.00 0.00 0.00 0.00 0.01 0.01 0.01 0.02 0.03 0.04 0.04 0.04
0.01 0.00 0.00 0.00 0.00 0.00 0.01 0.00 0.00 0.01 0.03 0.02 0.02 0.03 0.01 0.00 0.00 0.00 0.00 0.00 0.00 0.00 0.00 0.00 0.03 0.03 0.03 0.02 0.01 0.00 0.00 0.00 0.00 0.00 0.00 0.00 0.01 0.02 0.02 0.02 0.03 0.03 0.05 0.06
0.01 0.01 0.00 0.01 0.00 0.00 0.00 0.00 0.00 0.01 0.02 0.02 0.01 0.02 0.01 0.01 0.01 0.00 0.00 0.00 0.00 0.00 0.00 0.00 0.01 0.04 0.06 0.05 0.01 0.00 0.00 0.00 0.00 0.00 0.00 0.00 0.00 0.00 0.01 0.01 0.02 0.04 0.06 0.08
0.01 0.01 0.01 0.00 0.00 0.00 0.00 0.01 0.02 0.02 0.02 0.01 0.01 0.01 0.02 0.01 0.00 0.00 0.00 0.00 0.00 0.00 0.00 0.00 0.00 0.00 0.01 0.03 0.02 0.00 0.00 0.00 0.00 0.00 0.00 0.00 0.00 0.01 0.01 0.01 0.01 0.02 0.05 0.10
0.01 0.01 0.01 0.01 0.01 0.01 0.01 0.02 0.03 0.03 0.02 0.01 0.01 0.01 0.01 0.01 0.01 0.00 0.00 0.00 0.00 0.00 0.00 0.00 0.00 0.00 0.01 0.01 0.03 0.01 0.00 0.00 0.00 0.01 0.01 0.00 0.00 0.01 0.01 0.02 0.02 0.02 0.03 0.08
0.02 0.02 0.02 0.02 0.02 0.02 0.01 0.01 0.02 0.03 0.02 0.01 0.01 0.01 0.01 0.00 0.00 0.00 0.00 0.00 0.01 0.01 0.01 0.00 0.00 0.01 0.01 0.01 0.01 0.01 0.01 0.01 0.01 0.00 0.00 0.00 0.00 0.01 0.01 0.02 0.03 0.03 0.03 0.04
0.03 0.03 0.01 0.01 0.01 0.01 0.01 0.01 0.01 0.01 0.01 0.01 0.01 0.01 0.00 0.00 0.00 0.00 0.00 0.00 0.01 0.01 0.01 0.01 0.00 0.01 0.01 0.01 0.01 0.02 0.02 0.01 0.01 0.01 0.00 0.00 0.00 0.01 0.01 0.01 0.02 0.03 0.03 0.03
0.02 0.03 0.01 0.00 0.01 0.01 0.01 0.01 0.01 0.01 0.01 0.02 0.01 0.01 0.01 0.01 0.01 0.01 0.00 0.00 0.00 0.00 0.00 0.00 0.00 0.01 0.01 0.01 0.01 0.03 0.03 0.02 0.01 0.00 0.00 0.00 0.00 0.00 0.01 0.01 0.02 0.03 0.03 0.02
0.01 0.02 0.01 0.01 0.01 0.01 0.01 0.01 0.01 0.01 0.01 0.01 0.01 0.01 0.01 0.01 0.00 0.00 0.00 0.00 0.00 0.00 0.00 0.00 0.00 0.00 0.01 0.01 0.01 0.02 0.02 0.02 0.01 0.00 0.00 0.00 0.00 0.00 0.00 0.01 0.01 0.02 0.03 0.03
0.01 0.01 0.01 0.01 0.00 0.00 0.00 0.00 0.01 0.02 0.02 0.01 0.01 0.01 0.00 0.00 0.00 0.00 0.00 0.00 0.00 0.00 0.00 0.00 0.00 0.00 0.00 0.01 0.01 0.01 0.01 0.01 0.01 0.01 0.00 0.00 0.00 0.00 0.00 0.00 0.01 0.01 0.02 0.03
0.01 0.01 0.01 0.01 0.01 0.00 0.00 0.00 0.00 0.01 0.02 0.01 0.01 0.01 0.00 0.00 0.00 0.00 0.00 0.00 0.00 0.00 0.00 0.00 0.00 0.00 0.00 0.01 0.01 0.01 0.00 0.01 0.01 0.01 0.00 0.00 0.00 0.00 0.00 0.00 0.00 0.01 0.01 0.02
0.01 0.01 0.01 0.02 0.01 0.01 0.01 0.00 0.00 0.00 0.02 0.02 0.01 0.00 0.01 0.01 0.00 0.00 0.00 0.00 0.00 0.00 0.00 0.00 0.00 0.00 0.00 0.00 0.01 0.00 0.00 0.01 0.01 0.00 0.00 0.00 0.00 0.00 0.00 0.00 0.00 0.00 0.01 0.01
0.01 0.01 0.01 0.01 0.01 0.00 0.00 0.00 0.00 0.01 0.01 0.01 0.01 0.00 0.01 0.01 0.00 0.00 0.00 0.00 0.00 0.00 0.00 0.00 0.00 0.00 0.00 0.00 0.00 0.01 0.01 0.01 0.00 0.00 0.00 0.00 0.00 0.00 0.00 0.00 0.00 0.00 0.00 0.01
0.00 0.00 0.00 0.00 0.00 0.00 0.00 0.00 0.00 0.00 0.01 0.01 0.01 0.01 0.00 0.00 0.00 0.00 0.00 0.00 0.00 0.00 0.00 0.00 0.01 0.01 0.01 0.01 0.00 0.01 0.01 0.01 0.00 0.00 0.00 0.00 0.00 0.00 0.00 0.00 0.00 0.00 0.00 0.01
0.00 0.01 0.01 0.00 0.00 0.00 0.00 0.00 0.00 0.00 0.00 0.01 0.01 0.01 0.00 0.00 0.00 0.00 0.00 0.00 0.00 0.00 0.00 0.00 0.00 0.00 0.00 0.01 0.00 0.00 0.01 0.01 0.00 0.00 0.00 0.00 0.00 0.00 0.00 0.00 0.00 0.00 0.00 0.00
0.00 0.00 0.01 0.01 0.00 0.01 0.00 0.00 0.00 0.00 0.00 0.00 0.01 0.01 0.00 0.00 0.00 0.00 0.00 0.00 0.00 0.00 0.00 0.00 0.00 0.00 0.00 0.00 0.00 0.00 0.00 0.00 0.00 0.00 0.00 0.00 0.01 0.01 0.00 0.00 0.00 0.00 0.00 0.00
0.00 0.00 0.01 0.01 0.01 0.01 0.00 0.00 0.00 0.00 0.01 0.00 0.00 0.00 0.01 0.00 0.00 0.00 0.00 0.00 0.00 0.00 0.00 0.00 0.00 0.00 0.00 0.00 0.00 0.00 0.00 0.00 0.00 0.00 0.00 0.01 0.01 0.01 0.00 0.00 0.00 0.00 0.00 0.00
0.00 0.00 0.00 0.01 0.01 0.00 0.00 0.00 0.00 0.00 0.01 0.00 0.00 0.00 0.00 0.00 0.01 0.00 0.00 0.00 0.00 0.00 0.00 0.00 0.00 0.00 0.00 0.00 0.00 0.00 0.00 0.00 0.00 0.00 0.00 0.01 0.01 0.01 0.00 0.00 0.00 0.00 0.01 0.01
0.01 0.01 0.01 0.01 0.01 0.01 0.00 0.00 0.00 0.00 0.01 0.00 0.00 0.00 0.00 0.00 0.00 0.00 0.00 0.00 0.00 0.00 0.00 0.00 0.00 0.00 0.00 0.00 0.00 0.00 0.00 0.00 0.00 0.00 0.00 0.01 0.01 0.01 0.00 0.01 0.01 0.02 0.02 0.02
0.01 0.02 0.02 0.01 0.01 0.01 0.00 0.00 0.00 0.00 0.00 0.00 0.00 0.00 0.00 0.00 0.00 0.00 0.00 0.00 0.00 0.00 0.00 0.00 0.00 0.00 0.00 0.00 0.00 0.00 0.00 0.00 0.00 0.00 0.00 0.01 0.00 0.00 0.00 0.01 0.01 0.02 0.02 0.02
0.01 0.01 0.01 0.01 0.01 0.01 0.00 0.00 0.00 0.00 0.00 0.00 0.00 0.00 0.00 0.00 0.00 0.00 0.00 0.00 0.00 0.00 0.00 0.00 0.00 0.00 0.00 0.00 0.00 0.00 0.00 0.00 0.00 0.00 0.00 0.01 0.00 0.00 0.01 0.01 0.01 0.02 0.02 0.03
0.00 0.00 0.01 0.01 0.01 0.00 0.00 0.00 0.00 0.00 0.00 0.00 0.00 0.00 0.00 0.00 0.00 0.00 0.00 0.00 0.00 0.00 0.00 0.01 0.01 0.01 0.01 0.00 0.00 0.00 0.00 0.00 0.00 0.00 0.00 0.00 0.00 0.01 0.02 0.02 0.02 0.02 0.03 0.02
0.00 0.00 0.01 0.01 0.01 0.00 0.00 0.00 0.00 0.00 0.00 0.00 0.00 0.00 0.00 0.00 0.00 0.00 0.00 0.00 0.00 0.00 0.00 0.00 0.01 0.01 0.01 0.01 0.01 0.01 0.01 0.00 0.00 0.00 0.01 0.01 0.01 0.01 0.02 0.02 0.02 0.02 0.02 0.02
0.00 0.00 0.01 0.01 0.00 0.00 0.01 0.00 0.00 0.00 0.00 0.00 0.00 0.00 0.00 0.00 0.00 0.00 0.00 0.00 0.00 0.00 0.00 0.00 0.00 0.00 0.00 0.00 0.00 0.01 0.01 0.01 0.00 0.01 0.01 0.01 0.01 0.01 0.01 0.01 0.01 0.02 0.02 0.02
MSLP
1009.13 1009.51 1009.74 1009.86 1009.91 1009.95 1010.02 1010.15 1010.32 1010.49 1010.62 1010.64 1010.53 1010.27 1009.88 1009.42 1008.95 1008.54 1008.23 1008.05 1007.99 1008.03 1008.10 1008.18 1008.21 1008.20 1008.16 1008.13 1008.14 1008.25 1008.49 1008.86 1009.36 1009.93 1010.55 1011.15 1011.71 1012.20 1012.61 1012.97 1013.30 1013.62 1013.96 1014.32
1009.31 1009.59 1009.74 1009.81 1009.86 1009.94 1010.08 1010.29 1010.53 1010.76 1010.90 1010.90 1010.72 1010.36 1009.86 1009.29 1008.73 1008.27 1007.95 1007.81 1007.82 1007.94 1008.12 1008.29 1008.40 1008.43 1008.41 1008.37 1008.37 1008.46 1008.68 1009.05 1009.55 1010.15 1010.79 1011.42 1011.99 1012.47 1012.86 1013.17 1013.45 1013.71 1014.00 1014.33
1009.28 1009.46 1009.54 1009.59 1009.67 1009.82 1010.07 1010.39 1010.73 1011.02 1011.17 1011.14 1010.88 1010.40 1009.78 1009.09 1008.45 1007.94 1007.62 1007.53 1007.63 1007.87 1008.17 1008.46 1008.66 1008.76 1008.78 1008.74 1008.72 1008.77 1008.96 1009.31 1009.80 1010.40 1011.05 1011.68 1012.26 1012.74 1013.11 1013.39 1013.63 1013.84 1014.08 1014.37
1009.06 1009.13 1009.16 1009.22 1009.36 1009.62 1009.99 1010.45 1010.91 1011.27 1011.45 1011.38 1011.04 1010.46 1009.70 1008.90 1008.16 1007.60 1007.29 1007.25 1007.44 1007.81 1008.24 1008.65 1008.96 1009.14 1009.19 1009.16 1009.11 1009.13 1009.27 1009.57 1010.03 1010.60 1011.24 1011.88 1012.46 1012.94 1013.31 1013.58 1013.78 1013.97 1014.17 1014.43
1008.68 1008.67 1008.67 1008.76 1008.98 1009.36 1009.88 1010.48 1011.06 1011.51 1011.72 1011.63 1011.21 1010.53 1009.66 1008.74 1007.92 1007.31 1007.00 1006.99 1007.27 1007.74 1008.30 1008.83 1009.24 1009.50 1009.59 1009.56 1009.49 1009.46 1009.55 1009.79 1010.19 1010.72 1011.34 1011.96 1012.54 1013.02 1013.39 1013.66 1013.86 1014.03 1014.21 1014.44
1008.22 1008.15 1008.14 1008.26 1008.57 1009.07 1009.73 1010.47 1011.16 1011.68 1011.93 1011.83 1011.37 1010.61 1009.65 1008.64 1007.74 1007.08 1006.75 1006.76 1007.09 1007.65 1008.30 1008.93 1009.43 1009.75 1009.89 1009.88 1009.79 1009.72 1009.74 1009.91 1010.25 1010.73 1011.30 1011.91 1012.48 1012.96 1013.34 1013.62 1013.82 1013.98 1014.15 1014.35
1007.73 1007.62 1007.62 1007.78 1008.16 1008.76 1009.52 1010.37 1011.15 1011.74 1012.02 1011.93 1011.45 1010.64 1009.62 1008.55 1007.59 1006.89 1006.53 1006.55 1006.89 1007.49 1008.20 1008.90 1009.47 1009.85 1010.03 1010.04 1009.95 1009.85 1009.83 1009.95 1010.22 1010.64 1011.16 1011.73 1012.28 1012.76 1013.14 1013.43 1013.63 1013.80 1013.95 1014.14
1007.27 1007.15 1007.16 1007.35 1007.78 1008.43 1009.26 1010.16 1010.99 1011.61 1011.92 1011.84 1011.37 1010.55 1009.52 1008.43 1007.44 1006.71 1006.32 1006.31 1006.65 1007.25 1007.98 1008.72 1009.33 1009.77 1009.99 1010.04 1009.97 1009.87 1009.83 1009.90 1010.12 1010.48 1010.95 1011.48 1012.00 1012.46 1012.84 1013.12 1013.33 1013.49 1013.64 1013.80
1006.84 1006.75 1006.78 1007.00 1007.44 1008.10 1008.92 1009.81 1010.64 1011.26 1011.58 1011.52 1011.08 1010.29 1009.29 1008.22 1007.24 1006.50 1006.09 1006.06 1006.36 1006.93 1007.65 1008.39 1009.03 1009.51 1009.79 1009.89 1009.87 1009.79 1009.75 1009.81 1009.99 1010.31 1010.73 1011.21 1011.69 1012.12 1012.49 1012.76 1012.96 1013.11 1013.24 1013.39
1006.47 1006.43 1006.50 1006.72 1007.14 1007.76 1008.51 1009.34 1010.10 1010.69 1010.99 1010.95 1010.55 1009.84 1008.91 1007.91 1006.99 1006.27 1005.86 1005.79 1006.05 1006.57 1007.24 1007.96 1008.61 1009.12 1009.46 1009.62 1009.66 1009.65 1009.64 1009.71 1009.88 1010.16 1010.54 1010.97 1011.41 1011.81 1012.15 1012.40 1012.59 1012.73 1012.85 1012.97
1006.14 1006.19 1006.30 1006.52 1006.90 1007.43 1008.07 1008.77 1009.43 1009.94 1010.21 1010.18 1009.84 1009.22 1008.41 1007.52 1006.68 1006.03 1005.64 1005.55 1005.76 1006.22 1006.84 1007.52 1008.16 1008.69 1009.07 1009.31 1009.43 1009.48 1009.53 1009.63 1009.80 1010.07 1010.41 1010.80 1011.19 1011.56 1011.87 1012.11 1012.29 1012.42 1012.52 1012.63
1005.84 1005.99 1006.16 1006.39 1006.72 1007.14 1007.65 1008.20 1008.71 1009.11 1009.33 1009.30 1009.03 1008.52 1007.85 1007.10 1006.40 1005.83 1005.49 1005.40 1005.58 1005.97 1006.53 1007.15 1007.76 1008.30 1008.72 1009.01 1009.21 1009.34 1009.44 1009.58 1009.77 1010.02 1010.34 1010.69 1011.05 1011.38 1011.67 1011.91 1012.08 1012.21 1012.32 1012.42
1005.56 1005.83 1006.08 1006.33 1006.61 1006.93 1007.30 1007.69 1008.05 1008.33 1008.48 1008.46 1008.24 1007.85 1007.33 1006.75 1006.19 1005.74 1005.46 1005.40 1005.55 1005.89 1006.37 1006.94 1007.50 1008.02 1008.46 1008.79 1009.04 1009.23 1009.39 1009.55 1009.75 1010.00 1010.29 1010.61 1010.95 1011.26 1011.55 1011.79 1011.98 1012.12 1012.25 1012.36
1005.33 1005.72 1006.04 1006.32 1006.58 1006.82 1007.07 1007.31 1007.53 1007.70 1007.78 1007.75 1007.59 1007.31 1006.93 1006.52 1006.11 1005.79 1005.60 1005.57 1005.71 1006.00 1006.42 1006.91 1007.43 1007.91 1008.33 1008.68 1008.95 1009.17 1009.35 1009.53 1009.73 1009.96 1010.23 1010.53 1010.85 1011.16 1011.45 1011.71 1011.94 1012.12 1012.28 1012.42
1005.17 1005.65 1006.06 1006.38 1006.63 1006.83 1006.98 1007.11 1007.21 1007.28 1007.30 1007.26 1007.14 1006.96 1006.72 1006.45 1006.20 1006.00 1005.89 1005.91 1006.05 1006.31 1006.67 1007.09 1007.54 1007.97 1008.35 1008.68 1008.94 1009.16 1009.34 1009.51 1009.69 1009.90 1010.14 1010.42 1010.72 1011.03 1011.35 1011.64 1011.92 1012.16 1012.37 1012.55
1005.09 1005.65 1006.12 1006.49 1006.76 1006.93 1007.03 1007.08 1007.10 1007.09 1007.06 1007.00 1006.92 1006.81 1006.68 1006.55 1006.42 1006.34 1006.32 1006.38 1006.53 1006.77 1007.08 1007.44 1007.82 1008.18 1008.51 1008.79 1009.02 1009.20 1009.34 1009.48 1009.62 1009.79 1010.00 1010.26 1010.55 1010.87 1011.21 1011.55 1011.88 1012.18 1012.45 1012.68
1005.14 1005.72 1006.23 1006.64 1006.92 1007.10 1007.17 1007.17 1007.13 1007.08 1007.01 1006.95 1006.89 1006.84 1006.79 1006.76 1006.74 1006.75 1006.80 1006.91 1007.08 1007.31 1007.59 1007.89 1008.20 1008.50 1008.77 1008.99 1009.16 1009.29 1009.38 1009.47 1009.56 1009.68 1009.85 1010.08 1010.35 1010.68 1011.04 1011.42 1011.80 1012.16 1012.49 1012.77
1005.33 1005.88 1006.39 1006.80 1007.09 1007.26 1007.33 1007.31 1007.25 1007.16 1007.08 1007.01 1006.97 1006.96 1006.97 1007.00 1007.07 1007.15 1007.27 1007.43 1007.62 1007.85 1008.10 1008.37 1008.64 1008.88 1009.09 1009.26 1009.37 1009.44 1009.48 1009.51 1009.55 1009.62 1009.74 1009.93 1010.18 1010.50 1010.88 1011.28 1011.70 1012.11 1012.48 1012.80
1005.64 1006.12 1006.57 1006.95 1007.22 1007.38 1007.44 1007.42 1007.34 1007.25 1007.16 1007.10 1007.07 1007.09 1007.14 1007.22 1007.34 1007.48 1007.65 1007.85 1008.07 1008.30 1008.55 1008.81 1009.05 1009.26 1009.43 1009.56 1009.63 1009.66 1009.65 1009.63 1009.62 1009.65 1009.73 1009.88 1010.10 1010.41 1010.78 1011.19 1011.62 1012.05 1012.45 1012.80
1006.06 1006.40 1006.75 1007.04 1007.26 1007.39 1007.43 1007.41 1007.34 1007.25 1007.18 1007.13 1007.12 1007.16 1007.24 1007.36 1007.52 1007.70 1007.91 1008.14 1008.38 1008.64 1008.90 1009.15 1009.39 1009.59 1009.75 1009.86 1009.91 1009.92 1009.89 1009.85 1009.81 1009.81 1009.86 1009.97 1010.17 1010.45 1010.79 1011.19 1011.62 1012.05 1012.45 1012.81
1006.51 1006.69 1006.88 1007.06 1007.20 1007.27 1007.28 1007.25 1007.20 1007.13 1007.08 1007.05 1007.08 1007.14 1007.25 1007.40 1007.59 1007.80 1008.04 1008.30 1008.56 1008.84 1009.11 1009.38 1009.63 1009.84 1010.01 1010.13 1010.20 1010.21 1010.19 1010.15 1010.12 1010.10 1010.14 1010.23 1010.41 1010.65 1010.97 1011.34 1011.74 1012.15 1012.54 1012.89
1006.92 1006.92 1006.95 1006.99 1007.01 1007.02 1007.00 1006.96 1006.91 1006.88 1006.87 1006.88 1006.94 1007.04 1007.19 1007.37 1007.58 1007.82 1008.07 1008.34 1008.63 1008.91 1009.20 1009.48 1009.74 1009.97 1010.17 1010.32 1010.43 1010.49 1010.51 1010.51 1010.50 1010.51 1010.55 1010.64 1010.80 1011.02 1011.31 1011.64 1012.00 1012.38 1012.74 1013.07
1007.22 1007.05 1006.91 1006.81 1006.73 1006.66 1006.60 1006.56 1006.54 1006.55 1006.58 1006.66 1006.77 1006.92 1007.10 1007.31 1007.54 1007.79 1008.05 1008.32 1008.60 1008.89 1009.18 1009.46 1009.73 1009.99 1010.22 1010.42 1010.58 1010.70 1010.79 1010.85 1010.90 1010.96 1011.04 1011.15 1011.31 1011.52 1011.77 1012.07 1012.39 1012.72 1013.05 1013.35
1007.35 1007.03 1006.76 1006.53 1006.36 1006.23 1006.16 1006.12 1006.14 1006.19 1006.29 1006.43 1006.61 1006.81 1007.03 1007.27 1007.52 1007.77 1008.02 1008.28 1008.54 1008.80 1009.07 1009.34 1009.62 1009.89 1010.15 1010.39 1010.61 1010.81 1010.98 1011.12 1011.26 1011.39 1011.52 1011.68 1011.86 1012.07 1012.31 1012.57 1012.86 1013.15 1013.44 1013.70
1007.24 1006.83 1006.47 1006.17 1005.94 1005.79 1005.71 1005.71 1005.77 1005.89 1006.06 1006.28 1006.52 1006.77 1007.03 1007.30 1007.55 1007.79 1008.02 1008.24 1008.47 1008.69 1008.92 1009.16 1009.42 1009.69 1009.96 1010.25 1010.53 1010.80 1011.06 1011.30 1011.52 1011.74 1011.95 1012.16 1012.37 1012.59 1012.83 1013.08 1013.33 1013.59 1013.84 1014.07
1006.90 1006.46 1006.06 1005.74 1005.51 1005.37 1005.33 1005.37 1005.50 1005.69 1005.94 1006.22 1006.52 1006.83 1007.12 1007.40 1007.65 1007.87 1008.07 1008.24 1008.40 1008.57 1008.75 1008.94 1009.16 1009.42 1009.70 1010.01 1010.34 1010.68 1011.02 1011.35 1011.67 1011.98 1012.26 1012.53 1012.79 1013.04 1013.28 1013.51 1013.74 1013.96 1014.17 1014.37
Thickness
5754 5741 5733 5740 5745 5743 5743 5737 5734 5740 5750 5742 5734 5733 5737 5740 5738 5736 5735 5734 5733 5732 5733 5731 5728 5724 5721 5719 5718 5715 5713 5711 5708 5705 5702 5698 5696 5695 5695 5694 5694 5694 5694 5693
5741 5733 5745 5752 5751 5745 5740 5733 5733 5740 5748 5741 5734 5732 5740 5740 5738 5737 5735 5734 5733 5731 5729 5726 5723 5719 5716 5714 5713 5712 5709 5707 5704 5701 5698 5695 5693 5690 5689 5688 5688 5687 5687 5687
5733 5739 5750 5746 5740 5736 5735 5732 5731 5730 5737 5740 5731 5723 5733 5739 5741 5738 5737 5736 5735 5731 5726 5722 5718 5714 5712 5710 5709 5708 5705 5703 5700 5697 5694 5690 5687 5684 5682 5681 5680 5681 5682 5681
5739 5746 5744 5738 5736 5736 5727 5740 5738 5732 5721 5717 5724 5704 5724 5733 5731 5732 5732 5732 5731 5729 5726 5720 5715 5711 5708 5706 5705 5705 5702 5699 5695 5692 5688 5683 5678 5674 5674 5674 5675 5675 5676 5676
5734 5740 5736 5732 5735 5737 5734 5741 5736 5731 5722 5716 5723 5711 5723 5732 5722 5725 5729 5729 5729 5727 5723 5718 5713 5709 5706 5704 5701 5700 5697 5694 5691 5688 5684 5679 5675 5672 5671 5670 5669 5669 5670 5670
5738 5746 5742 5738 5742 5742 5739 5734 5731 5728 5718 5701 5719 5713 5713 5724 5725 5727 5729 5729 5727 5725 5721 5716 5712 5707 5702 5699 5697 5695 5691 5688 5686 5683 5680 5676 5671 5668 5665 5664 5663 5663 5663 5664
5726 5734 5741 5742 5730 5734 5731 5714 5698 5695 5692 5702 5729 5719 5718 5732 5736 5733 5729 5727 5724 5721 5716 5711 5706 5702 5698 5694 5691 5689 5686 5683 5681 5679 5676 5672 5669 5666 5662 5660 5658 5657 5657 5657
5714 5716 5732 5735 5728 5722 5725 5718 5696 5686 5694 5707 5721 5715 5723 5737 5738 5736 5732 5727 5721 5715 5711 5707 5703 5698 5695 5691 5687 5684 5682 5679 5676 5674 5671 5669 5666 5662 5659 5657 5655 5653 5652 5652
5716 5715 5734 5735 5735 5728 5719 5718 5724 5707 5706 5701 5713 5720 5722 5733 5730 5728 5726 5721 5716 5711 5707 5703 5699 5696 5692 5687 5684 5681 5678 5675 5672 5669 5667 5664 5661 5658 5655 5654 5651 5649 5648 5648
5722 5712 5724 5730 5729 5728 5725 5720 5713 5702 5689 5685 5703 5711 5708 5715 5717 5719 5717 5714 5711 5709 5704 5700 5696 5692 5688 5684 5680 5677 5674 5671 5668 5665 5663 5660 5657 5654 5652 5649 5647 5645 5644 5643
5721 5709 5713 5718 5712 5712 5714 5711 5709 5705 5703 5687 5684 5696 5724 5720 5720 5716 5714 5711 5708 5704 5700 5696 5692 5689 5685 5680 5676 5672 5670 5667 5664 5661 5658 5655 5652 5650 5647 5644 5642 5640 5639 5638
5718 5709 5703 5713 5725 5727 5718 5712 5706 5689 5692 5698 5687 5693 5729 5724 5722 5717 5711 5708 5704 5700 5697 5692 5688 5684 5680 5675 5672 5668 5666 5662 5660 5657 5654 5651 5648 5645 5642 5639 5637 5635 5634 5633
5710 5700 5690 5693 5700 5710 5708 5710 5709 5702 5694 5687 5680 5690 5720 5718 5714 5712 5707 5703 5699 5695 5691 5687 5682 5678 5674 5671 5668 5665 5662 5659 5656 5653 5649 5646 5643 5640 5637 5634 5632 5630 5628 5626
5704 5695 5689 5683 5691 5700 5698 5701 5703 5695 5682 5682 5688 5693 5704 5705 5702 5701 5700 5697 5693 5689 5684 5680 5675 5673 5670 5667 5664 5661 5658 5655 5652 5648 5644 5641 5638 5635 5633 5630 5627 5624 5623 5621
5698 5688 5694 5699 5704 5703 5700 5698 5697 5692 5691 5684 5689 5692 5697 5700 5697 5696 5695 5691 5686 5681 5677 5673 5669 5666 5665 5662 5659 5657 5653 5650 5647 5643 5639 5636 5634 5631 5628 5624 5621 5619 5617 5615
5694 5685 5688 5689 5698 5698 5695 5698 5696 5692 5693 5690 5689 5688 5699 5700 5697 5692 5688 5683 5678 5674 5671 5668 5664 5660 5658 5655 5654 5651 5648 5645 5642 5638 5635 5632 5629 5625 5621 5618 5615 5613 5610 5608
5686 5681 5675 5676 5689 5687 5681 5695 5695 5692 5693 5689 5680 5684 5692 5689 5687 5684 5681 5677 5673 5669 5665 5661 5658 5655 5652 5650 5648 5645 5643 5640 5636 5633 5629 5626 5622 5618 5615 5612 5609 5606 5604 5602
5680 5676 5672 5670 5672 5660 5686 5704 5700 5693 5690 5689 5687 5686 5685 5682 5681 5680 5677 5672 5668 5664 5660 5656 5653 5650 5648 5646 5643 5640 5637 5634 5630 5627 5623 5620 5616 5612 5609 5605 5602 5600 5598 5596
5682 5671 5664 5663 5658 5667 5683 5692 5692 5683 5679 5686 5682 5679 5677 5676 5673 5668 5670 5667 5663 5659 5655 5651 5648 5645 5642 5639 5637 5633 5629 5626 5623 5620 5616 5613 5610 5605 5602 5599 5597 5595 5593 5590
5674 5670 5659 5657 5649 5651 5674 5688 5693 5680 5665 5680 5679 5673 5669 5665 5652 5653 5660 5659 5655 5653 5649 5645 5642 5638 5634 5632 5629 5624 5621 5618 5615 5613 5610 5607 5604 5600 5596 5594 5591 5589 5587 5584
5654 5654 5650 5648 5647 5658 5676 5683 5680 5655 5656 5672 5673 5668 5663 5656 5652 5653 5653 5649 5646 5644 5641 5638 5634 5629 5626 5624 5621 5616 5613 5610 5609 5606 5603 5600 5597 5594 5591 5588 5585 5582 5580 5577
5650 5646 5646 5646 5640 5646 5671 5670 5662 5660 5668 5667 5664 5662 5657 5652 5650 5647 5644 5640 5637 5634 5632 5629 5625 5621 5618 5616 5612 5608 5605 5604 5602 5598 5595 5592 5590 5588 5585 5580 5577 5575 5572 5569
5654 5654 5652 5650 5649 5661 5667 5664 5665 5665 5660 5657 5655 5653 5649 5644 5640 5637 5633 5630 5627 5625 5622 5620 5616 5612 5609 5607 5604 5599 5598 5596 5593 5590 5587 5585 5582 5579 5577 5573 5569 5566 5564 5561
5653 5658 5651 5648 5652 5657 5658 5657 5657 5655 5652 5649 5647 5644 5640 5634 5631 5627 5624 5620 5618 5616 5613 5611 5607 5603 5600 5598 5596 5593 5590 5588 5585 5582 5579 5577 5574 5571 5568 5564 5561 5557 5555 5553
5642 5644 5640 5638 5643 5646 5647 5646 5646 5644 5643 5639 5637 5634 5630 5626 5622 5619 5615 5611 5608 5606 5604 5602 5598 5595 5592 5590 5587 5584 5581 5579 5576 5574 5571 5569 5566 5562 5559 5555 5552 5550 5548 5546
5633 5631 5626 5626 5635 5633 5633 5637 5637 5633 5631 5628 5625 5621 5620 5617 5613 5609 5606 5603 5600 5597 5595 5592 5590 5587 5584 5582 5578 5576 5573 5571 5568 5565 5563 5560 5557 5554 5550 5546 5543 5541 5539 5538